This is the latest recevied weather packets stored in our database for station/object F4FEB-14. If no packets are shown the sender has not sent any weather packets the latest 1 day(s).
| Time | Temp. | Humidity | Pressure | Rain* | Wind** | Luminosity | Snow |
|---|---|---|---|---|---|---|---|
| 1778073720 | 11.11° C | 100% | 1011.6 hPa | 0 mm | - | - | - |
| 1778073418 | 11.11° C | 100% | 1011.6 hPa | 0 mm | - | - | - |
| 1778072815 | 11.11° C | 100% | 1011.6 hPa | 0.25 mm | - | - | - |
| 1778072514 | 11.67° C | 100% | 1011.6 hPa | 0.25 mm | - | - | - |
| 1778072213 | 11.67° C | 100% | 1011.6 hPa | 0.25 mm | - | - | - |
| 1778071610 | 11.11° C | 100% | 1011.5 hPa | 0.25 mm | - | - | - |
| 1778070104 | 10.56° C | 100% | 1011.6 hPa | 0 mm | - | - | - |
| 1778069501 | 10° C | 100% | 1011.5 hPa | 2.03 mm | - | - | - |
| 1778068598 | 10° C | 100% | 1011.5 hPa | 1.27 mm | - | - | - |
| 1778067090 | 10° C | 100% | 1011.3 hPa | 0.25 mm | - | - | - |
| 1778066486 | 10° C | 100% | 1011.4 hPa | 0 mm | - | - | - |
| 1778066185 | 10° C | 100% | 1011.3 hPa | 0 mm | - | - | - |
| 1778064075 | 10° C | 100% | 1011.4 hPa | 1.52 mm | - | - | - |
| 1778063172 | 9.44° C | 100% | 1011.4 hPa | 1.02 mm | - | - | - |
| 1778062571 | 9.44° C | 100% | 1011.2 hPa | 0 mm | - | - | - |
| 1778061966 | 9.44° C | 100% | 1011 hPa | 5.33 mm | - | - | - |
| 1778061361 | 9.44° C | 100% | 1010.9 hPa | 4.32 mm | - | - | - |
| 1778061060 | 9.44° C | 100% | 1010.7 hPa | 3.56 mm | - | - | - |
| 1778060759 | 9.44° C | 100% | 1010.7 hPa | 2.79 mm | - | - | - |
| 1778059253 | 10° C | 100% | 1010.4 hPa | 0.25 mm | - | - | - |
| 1778058339 | 10° C | 100% | 1010.2 hPa | 2.79 mm | - | - | - |
| 1778058035 | 10° C | 100% | 1010.1 hPa | 2.54 mm | - | - | - |
| 1778057431 | 10° C | 100% | 1010 hPa | 1.78 mm | - | - | - |
| 1778056820 | 10° C | 100% | 1009.9 hPa | 1.27 mm | - | - | - |
| 1778055616 | 10° C | 100% | 1009.7 hPa | 0.25 mm | - | - | - |
* Rain latest hour (hover to see other rain measurements)
** Current wind speed in m/s (hover to see current wind gust speed)